sat.trackr.live / text

‹ back to catalog

STARLINK-5397

NORAD 54871 · 2022-177BD

PAYLOAD ACTIVE UNKNOWN

§ Identity

Operator
Country
US
Launch date
2022-12-28
Launch site
AFETR
Launch vehicle
Mass (kg)
RCS (m²)

Purposes: comms

External: N2YO · Heavens-Above · Gunter

§ Orbital elements

Epoch: 2026-05-25T02:39:27.102240Z

Period
94.27 min
Inclination
43.0059°
Eccentricity
0.0001114
Mean motion
15.27573200 rev/d
Perigee alt
482.3 km
Apogee alt
483.8 km
Semi-major
6,861.2 km
B*
-3.6857e-6
RAAN
50.3785°
Arg perigee
264.6617°
Mean anomaly
95.4107°
Rev number
18,877

§ Raw data

STARLINK-53971 54871U 22177BD  26145.11073035 -.00000363  00000+0 -36857-5 0  99992 54871  43.0059  50.3785 0001114 264.6617  95.4107 15.27573200188774

JSON: /api/v1/satellites/54871 · /tle

For live sub-satellite position, see the globe view (requires WebGL).

§ Visibility from observer

Set your observer location to see the next 7 days of passes ≥ 10°. The values pass through the URL so the page stays shareable.

No JS? Fill the form by hand. The geolocation button needs JavaScript.